Flag for Switzerland Weather past 2 weeks in Aarau, Aargau, Switzerland

Now
61 °F

Refreshingly cool.


Feels Like: 61 °F
Forecast: 40 / 62 °F
Wind: 5 mph from North

Location: Wynau

Current Time: Sep 22, 2014 at 3:14:55 PM

Latest Report: Sep 22, 2014 at 2:00 PM


Visibility: N/A

Pressure: 30.11 "Hg

Humidity: 54%

Dew point: 44 °F

Location of AarauLocation

Historic Weather in Aarau — Graph

°F

Aarau temperature yesterday

Maximum temperature yesterday: 69 °F (at 12:00 PM)
Minimum temperature yesterday: 56 °F (at 4:00 AM)
Average temperature yesterday: 61 °F

Past Weeks' High & Low Weather Summary

 TemperatureHumidityPressure
High81 °F (Sep 7, 5:00 PM)100% (Sep 8, 7:00 AM)30.16 "Hg (Sep 8, 7:00 AM)
Low47 °F (Sep 12, 6:00 AM)44% (Sep 7, 5:00 PM)29.80 "Hg (Sep 17, 6:00 PM)
Average62 °F83%29.99 "Hg
* Reported Sep 7 2:00 PM — Sep 22 2:00 PM, Aarau, Weather by CustomWeather, © 2014

Note: Actual official high and low records may vary slightly from our data, if they occured in-between our weather recording intervals... More about our weather records

Advertising

Aarau weather history for previous 24 hours

 ConditionsComfort  
Time TempWeatherWind HumidityBarometerVisibility
2:00 PM
Sep 22
61 °FRefreshingly cool.5 mph54%30.11 "HgN/A
1:00 PM60 °FRefreshingly cool.7 mph55%30.12 "HgN/A
12:00 PM61 °FRefreshingly cool.6 mph55%30.13 "HgN/A
11:00 AM59 °FCool.3 mph62%30.14 "HgN/A
10:00 AM56 °FCool.1 mph72%30.15 "HgN/A
9:00 AM51 °FCool.2 mph91%30.16 "HgN/A
8:00 AM51 °FCool.1 mph93%30.16 "HgN/A
7:00 AM50 °FCool.2 mph98%30.14 "HgN/A
6:00 AM52 °FCool.1 mph93%30.12 "HgN/A
5:00 AM54 °FCool.1 mph97%30.11 "HgN/A
4:00 AM55 °FCool.1 mph94%30.11 "HgN/A
3:00 AM55 °FCool.1 mph97%30.11 "HgN/A
2:00 AM57 °FCool.2 mph92%30.10 "HgN/A
1:00 AM57 °FCool.1 mph94%30.09 "HgN/A
12:00 AM57 °FCool.2 mph96%30.09 "HgN/A
11:00 PM
Sep 21
59 °FCool.3 mph89%30.06 "HgN/A
10:00 PM58 °FCool.3 mph92%30.07 "HgN/A
9:00 PM59 °FCool.7 mph90%30.06 "HgN/A
8:00 PM61 °FCool.6 mph81%30.03 "HgN/A
7:00 PM63 °FMild.5 mph78%30.00 "HgN/A
6:00 PM65 °FMild.7 mph71%29.99 "HgN/A
5:00 PM66 °FMild.5 mph74%29.97 "HgN/A
4:00 PM67 °FMild.3 mph75%29.97 "HgN/A
3:00 PM65 °FMild.3 mph85%29.98 "HgN/A
Weather by CustomWeather, © 2014

See weather overviewHow to use our weather pages